Temperature
21 20 20 20 19 19 19 19 19 19 19 19 19 19 19 19 19 19 19 19 19 19 19 19 19 19 19 19 19 18 18 18 18 18 18 18 18 18 18 18 18 18 18
21 20 20 20 20 19 19 19 19 19 19 19 19 19 19 19 19 19 19 19 19 19 19 19 19 19 19 19 18 18 18 18 18 18 18 18 18 18 18 18 18 18 18
21 20 20 20 20 20 19 19 19 19 19 19 19 19 19 19 19 19 19 19 19 19 19 18 18 18 18 18 18 18 18 18 18 18 18 18 18 18 18 18 18 18 18
21 20 20 20 20 20 19 19 19 19 19 19 18 18 18 19 19 19 19 19 19 19 18 18 18 18 18 18 18 18 18 18 18 18 18 18 18 18 18 18 18 18 18
21 20 20 20 20 19 19 19 19 19 19 19 18 18 18 18 18 18 18 18 18 18 18 18 18 18 18 18 18 18 18 18 18 18 18 18 18 18 18 18 18 18 18
20 20 20 20 19 19 19 19 19 19 19 19 18 18 18 18 18 18 18 18 18 18 18 18 18 18 18 18 18 18 18 18 18 18 18 18 18 18 18 18 18 18 18
20 20 20 20 19 19 19 19 19 19 19 19 18 18 18 18 18 18 18 18 18 18 18 18 18 18 18 18 18 18 18 18 18 18 18 18 18 18 18 18 18 18 18
20 20 20 19 19 19 19 19 19 19 19 19 19 18 18 18 18 18 18 18 18 18 18 18 18 18 18 18 18 18 18 18 18 18 18 18 18 18 18 18 18 18 18
20 19 19 19 19 19 19 19 19 19 19 19 19 19 18 18 18 18 19 18 18 18 18 18 18 18 18 18 18 18 18 18 18 18 18 18 18 18 18 18 18 17 17
20 19 19 19 19 19 19 19 19 19 19 19 19 19 18 18 18 18 18 18 18 18 18 18 18 18 18 18 18 18 18 18 18 18 18 18 18 18 17 17 17 17 17
20 19 19 19 19 19 19 19 19 19 19 19 19 18 18 18 18 18 18 18 18 18 18 18 18 18 18 18 18 18 18 18 18 18 18 18 18 18 18 17 17 18 17
20 20 19 19 19 19 19 19 19 19 19 19 19 19 18 18 18 18 18 18 18 18 18 18 18 18 18 18 18 18 18 18 18 18 18 18 18 18 18 17 17 17 17
20 20 19 19 19 19 19 19 19 19 19 19 19 18 18 18 18 18 18 18 18 18 18 18 18 18 18 18 18 18 18 18 18 18 18 18 18 18 18 17 17 17 17
20 20 20 19 19 19 19 19 19 19 19 19 19 19 19 18 18 18 18 18 18 18 18 18 18 18 18 18 18 18 18 18 18 18 18 18 18 18 17 17 17 17 17
20 20 20 19 19 19 19 19 19 19 19 19 19 19 19 18 18 18 18 18 18 18 18 18 18 18 18 18 18 18 18 18 18 18 18 18 18 18 17 17 17 17 17
20 20 20 19 19 19 19 19 19 19 19 19 19 18 18 18 18 18 18 18 18 18 18 18 18 18 18 18 18 18 18 18 18 18 18 18 18 18 17 17 17 17 17
20 20 20 20 19 19 19 19 19 19 19 19 18 18 18 18 18 18 18 18 18 18 18 18 18 18 18 18 18 18 18 18 18 18 18 18 18 17 17 17 17 17 17
20 20 20 20 19 19 19 19 19 19 19 19 18 18 18 18 18 18 18 18 18 18 18 18 18 18 18 18 18 18 18 18 18 18 18 18 18 18 17 17 17 17 17
21 20 20 20 19 19 19 19 19 19 18 18 18 18 18 18 18 18 18 18 18 18 18 18 18 18 18 18 18 18 18 18 18 18 18 18 18 18 17 17 17 17 17
21 20 20 20 19 19 19 19 19 18 18 18 18 18 18 18 18 18 18 18 18 18 18 18 18 18 18 18 18 18 18 18 18 18 18 18 18 17 17 17 17 17 17
21 20 20 20 19 19 19 19 19 18 18 18 18 18 18 18 18 18 18 18 18 18 18 18 18 18 18 18 18 18 18 18 17 17 17 17 17 17 17 17 17 17 17
21 20 20 20 19 19 19 19 18 18 18 18 18 18 18 18 18 18 18 18 18 18 18 18 18 18 17 17 17 17 17 17 17 17 17 17 17 17 17 17 17 17 17
21 20 20 20 19 19 19 19 18 18 18 18 18 18 18 18 18 18 18 18 18 17 18 18 18 17 17 17 17 17 17 17 17 17 17 17 17 17 17 17 17 17 17
21 20 20 20 19 19 19 19 18 18 18 18 18 18 18 18 18 18 18 18 18 17 17 17 17 17 17 17 17 17 17 17 17 16 16 17 17 17 17 17 16 16 16
20 20 20 20 19 19 19 19 18 18 18 18 18 18 18 18 18 18 18 18 17 17 17 17 17 17 17 17 17 17 16 16 16 16 16 16 16 16 16 16 16 16 16
20 20 20 20 19 19 19 19 18 18 18 18 18 18 18 18 17 17 17 17 17 17 17 17 17 17 17 17 17 16 16 16 16 16 16 16 16 16 16 16 16 16 16
Wind_Speed
3 4 7 7 6 7 8 8 9 9 10 11 11 11 11 11 10 10 10 10 10 10 10 10 10 9 9 9 9 9 8 9 9 9 10 10 10 10 10 11 11 10 11
2 4 6 5 5 6 8 8 9 10 11 11 12 11 11 11 10 10 9 9 9 9 9 9 9 9 8 8 8 8 8 8 9 9 9 9 9 10 10 10 11 9 12
1 3 5 5 5 6 8 8 9 9 11 11 11 11 11 10 10 9 9 8 8 8 8 8 8 7 8 8 8 9 8 8 8 8 8 6 7 9 9 10 10 11 12
2 2 4 5 6 7 7 8 8 8 10 11 11 10 10 10 9 9 8 7 7 7 7 7 7 7 7 8 8 8 8 8 8 8 6 5 6 8 9 10 10 11 11
1 1 3 5 6 7 7 7 7 7 9 10 10 10 9 8 8 7 7 6 6 6 6 5 5 6 6 7 7 7 7 8 8 7 5 5 5 7 8 9 10 10 11
1 1 3 4 6 7 7 6 6 6 7 8 10 9 9 8 7 6 6 6 6 6 6 6 6 6 6 6 7 7 7 7 7 6 6 5 6 7 8 9 9 10 11
1 1 1 2 5 6 6 6 6 6 7 8 9 8 8 7 7 6 5 5 5 5 5 5 5 5 5 6 6 7 7 7 6 5 5 5 6 8 9 10 10 10 11
1 1 0 2 3 5 5 5 5 6 6 7 8 8 7 7 6 5 4 4 5 5 5 5 5 5 6 6 6 7 7 7 6 5 5 6 8 9 10 11 10 10 10
2 2 2 1 1 2 3 3 4 5 5 6 6 6 6 6 5 4 3 3 3 3 4 4 5 6 6 6 6 7 7 7 6 5 6 6 9 11 11 11 11 10 11
3 3 3 2 2 1 0 2 4 4 4 4 5 5 5 5 4 3 2 2 2 2 3 4 5 5 5 5 5 6 6 6 5 6 6 7 10 10 11 11 12 11 11
2 2 2 2 1 1 1 2 2 3 3 3 2 3 3 2 2 1 1 1 1 2 2 3 4 4 4 4 4 4 4 3 4 4 5 7 10 11 11 11 11 11 10
1 2 2 2 2 2 2 2 2 2 2 2 2 2 2 2 2 1 1 0 0 1 1 2 2 2 2 1 2 2 1 3 3 3 4 7 9 10 11 11 11 11 11
1 1 2 1 2 2 2 2 2 2 2 3 2 2 2 2 2 2 1 1 2 2 2 2 1 0 1 1 1 1 2 2 2 3 4 6 7 9 10 10 9 9 9
1 2 2 2 2 2 2 2 2 2 2 2 1 2 2 1 1 1 1 2 2 1 2 2 1 1 1 1 2 1 1 2 2 2 3 5 6 7 8 9 8 8 8
2 2 2 3 2 2 2 1 2 2 1 1 1 1 2 2 1 1 1 1 1 1 1 1 2 2 1 1 1 1 1 1 2 2 2 4 5 6 7 8 8 8 8
1 1 2 3 2 3 2 2 1 2 2 2 2 2 2 1 1 1 1 1 1 1 1 1 1 1 1 1 0 1 1 1 1 1 1 2 3 4 6 7 8 8 8
2 1 2 3 3 3 3 2 2 2 2 2 2 2 1 1 1 1 1 1 1 1 1 2 2 2 2 1 1 1 1 1 1 1 1 1 2 3 4 5 7 8 8
2 2 2 3 4 3 3 3 3 3 2 2 2 2 2 2 2 2 1 1 1 1 2 2 2 2 2 1 1 1 1 1 1 0 0 1 1 2 2 4 5 7 8
3 3 2 3 3 3 3 3 3 3 3 2 2 2 2 3 3 2 2 1 1 2 2 2 2 2 1 1 1 1 1 1 0 0 0 0 0 1 2 2 3 2 4
3 3 3 3 2 2 3 3 3 3 3 2 2 2 3 3 3 2 2 1 2 2 2 2 2 2 1 1 2 2 2 1 1 1 0 1 0 0 1 1 0 1 2
3 3 3 3 1 2 2 1 1 1 2 2 2 2 3 2 2 2 1 1 2 1 1 1 2 2 2 1 2 2 2 2 2 1 1 1 1 0 0 1 1 1 1
4 4 3 3 2 1 1 1 1 1 1 1 2 3 3 2 2 1 1 1 1 1 2 2 2 1 1 2 1 1 2 3 3 3 2 1 1 1 0 0 1 2 2
4 4 4 3 3 2 2 3 3 2 2 2 2 2 3 3 2 2 1 1 1 1 1 1 1 2 1 2 2 2 1 1 1 2 2 2 2 1 1 1 1 2 2
5 4 3 3 3 2 3 3 3 2 1 0 0 1 2 3 2 2 2 1 1 1 1 0 1 1 2 1 1 1 0 1 1 1 2 2 2 2 1 1 1 1 1
5 5 4 3 3 2 2 3 3 2 1 0 1 2 2 3 3 3 2 2 1 1 1 1 1 2 1 1 1 0 1 1 1 1 1 2 2 2 2 2 1 1 1
4 4 5 4 3 2 3 2 3 3 2 1 1 1 2 2 2 3 2 2 1 1 0 0 1 1 1 1 1 1 1 1 1 1 2 1 2 2 2 1 1 1 1
Wind_Direction
232 217 218 218 213 203 192 181 175 172 168 164 160 157 154 152 152 155 160 162 165 167 166 166 168 166 165 166 168 166 168 171 171 171 170 170 170 172 173 175 176 175 173
216 210 219 209 198 187 182 178 172 171 169 167 164 162 159 156 156 158 158 160 164 167 169 168 169 170 172 176 175 172 174 175 173 171 172 172 174 174 177 181 181 174 175
183 207 207 188 180 177 175 174 172 172 171 167 165 165 164 163 161 163 163 164 167 169 171 172 174 174 178 183 181 179 181 181 175 173 175 168 170 174 179 185 183 178 177
177 196 197 178 173 170 169 169 171 172 170 168 165 165 166 166 167 167 167 169 172 174 178 180 182 183 185 187 185 184 184 181 178 179 173 168 173 181 186 188 185 182 181
97 206 212 185 175 169 167 170 171 169 168 167 166 165 166 165 166 165 166 174 177 180 184 188 190 192 190 186 186 190 190 188 184 180 170 173 180 187 191 191 191 187 186
34 225 235 199 184 173 171 171 163 158 161 166 164 160 162 165 164 165 171 177 182 189 190 191 196 199 197 194 196 199 197 191 182 172 173 180 188 196 197 197 194 192 187
323 294 261 187 179 174 173 169 159 152 151 155 157 161 165 170 170 174 177 183 188 191 195 200 203 207 201 204 209 212 203 193 177 172 180 189 195 203 203 201 199 197 194
65 343 20 124 143 161 168 171 165 160 157 158 163 166 170 173 171 173 182 188 192 198 200 204 214 221 218 216 221 223 215 201 186 186 191 201 205 206 206 206 205 201 200
52 38 23 52 103 150 165 171 172 164 166 163 162 164 166 166 166 170 182 196 199 206 211 217 225 228 226 226 227 227 218 203 190 188 204 211 214 211 211 213 208 208 204
43 28 16 26 34 50 117 157 162 163 159 149 151 158 161 156 160 168 182 201 210 220 218 225 233 234 230 227 229 223 212 205 190 195 205 211 212 211 210 213 210 210 205
27 10 3 24 41 33 57 122 132 140 137 136 145 142 131 113 119 134 165 199 216 232 237 236 236 232 233 230 225 219 215 187 182 193 202 210 212 210 209 211 210 210 208
351 354 10 29 39 48 70 79 79 93 76 64 62 64 70 72 68 72 88 43 321 293 290 266 240 221 226 222 227 234 189 171 175 194 205 210 211 211 211 211 211 209 209
288 13 26 31 43 65 66 72 78 75 64 60 65 68 66 57 48 42 33 5 1 10 357 340 336 101 143 162 174 165 158 164 166 187 196 198 201 205 207 210 211 209 209
65 38 49 66 71 73 82 74 78 77 71 66 56 74 78 77 67 62 54 17 8 12 6 15 33 68 86 118 130 128 122 145 159 175 189 198 205 208 208 211 211 210 210
86 58 63 76 86 82 82 74 83 91 98 84 58 64 96 113 94 76 55 35 11 24 32 29 45 64 74 97 137 140 139 158 171 180 197 205 209 210 212 212 213 214 213
110 77 77 85 95 96 97 96 77 78 85 84 64 48 73 100 111 110 83 41 16 22 59 53 51 66 65 84 88 126 148 149 146 196 215 214 218 216 218 219 219 220 217
141 89 83 99 90 95 92 83 79 70 80 79 63 54 65 97 106 109 94 51 18 38 64 63 50 64 64 62 46 55 104 119 134 229 226 210 221 228 235 236 231 230 229
132 101 86 102 99 96 92 78 71 66 71 66 47 51 71 90 99 100 85 48 37 63 69 67 55 65 60 52 31 27 47 58 12 281 199 193 204 212 238 251 249 244 241
135 116 100 88 99 102 88 74 69 64 61 51 45 46 53 64 80 92 85 49 50 62 58 69 62 80 70 37 46 40 45 57 18 37 93 93 179 205 216 243 257 263 258
121 113 111 95 81 88 84 71 61 55 49 45 40 36 47 53 65 76 73 39 54 61 53 64 71 63 84 59 60 46 38 25 35 35 359 34 63 192 202 201 226 273 279
117 117 128 118 100 97 98 95 78 51 34 28 25 29 38 48 68 85 71 48 57 67 61 60 86 74 61 65 71 42 26 28 26 9 4 23 11 11 144 193 233 266 278
151 150 147 143 138 127 138 127 110 95 50 20 358 15 21 30 41 86 99 79 63 70 55 59 81 84 51 53 85 72 8 4 15 14 18 43 21 38 23 283 245 254 267
163 167 164 159 149 135 118 97 84 62 40 27 13 6 11 21 28 42 63 79 81 106 95 63 92 114 85 39 52 115 128 250 318 354 15 21 21 36 8 8 286 267 266
184 173 161 155 135 128 126 124 123 125 129 235 353 345 3 22 26 43 55 69 71 76 82 34 91 109 122 107 36 38 107 166 183 325 347 1 11 22 356 344 332 319 298
181 171 163 147 132 127 120 133 135 134 160 49 38 29 14 12 19 27 37 50 57 56 33 43 80 98 118 140 137 112 88 63 117 182 289 332 355 356 342 325 333 357 331
175 168 160 149 151 145 141 147 151 152 145 86 49 31 357 354 3 12 26 33 38 41 20 36 93 113 119 125 120 122 150 166 185 175 220 286 321 328 337 347 347 339 333
Height
1480 1479 1477 1476 1476 1476 1478 1479 1480 1481 1483 1485 1486 1488 1490 1491 1493 1495 1496 1498 1500 1501 1503 1504 1505 1506 1508 1509 1511 1512 1513 1515 1516 1518 1519 1520 1521 1523 1524 1526 1527 1529 1531
1480 1478 1477 1476 1475 1475 1477 1478 1479 1480 1482 1484 1486 1488 1490 1491 1493 1495 1496 1498 1499 1501 1502 1503 1505 1506 1507 1509 1510 1511 1513 1514 1516 1517 1518 1519 1520 1522 1523 1525 1526 1528 1530
1479 1478 1477 1476 1475 1475 1476 1478 1479 1480 1481 1483 1485 1487 1489 1491 1493 1495 1497 1498 1499 1501 1502 1503 1504 1506 1507 1508 1509 1511 1512 1514 1515 1516 1517 1518 1519 1520 1522 1524 1526 1527 1529
1480 1478 1477 1476 1476 1476 1477 1478 1479 1479 1480 1482 1484 1487 1489 1491 1493 1495 1496 1498 1499 1500 1502 1503 1504 1505 1506 1507 1508 1510 1511 1513 1514 1515 1516 1518 1518 1520 1522 1523 1525 1526 1528
1481 1479 1478 1477 1477 1477 1478 1479 1479 1478 1478 1480 1483 1486 1489 1491 1493 1495 1496 1498 1499 1500 1501 1502 1504 1505 1506 1507 1508 1509 1510 1512 1513 1514 1515 1516 1518 1519 1521 1522 1524 1526 1527
1481 1480 1478 1476 1476 1478 1479 1480 1479 1478 1477 1478 1482 1486 1489 1491 1493 1495 1496 1498 1499 1500 1501 1502 1503 1504 1505 1506 1507 1508 1509 1510 1511 1512 1514 1515 1516 1518 1519 1521 1522 1524 1526
1483 1481 1478 1474 1475 1478 1480 1481 1481 1480 1478 1479 1483 1486 1490 1492 1493 1495 1496 1497 1499 1500 1501 1502 1503 1504 1504 1505 1506 1507 1508 1509 1509 1511 1512 1514 1515 1516 1517 1519 1521 1523 1524
1484 1483 1480 1478 1478 1480 1481 1482 1482 1483 1483 1484 1486 1489 1491 1493 1494 1495 1497 1498 1499 1500 1500 1501 1502 1503 1503 1504 1505 1505 1506 1507 1508 1509 1510 1511 1512 1514 1515 1517 1519 1521 1522
1486 1484 1483 1482 1482 1482 1483 1483 1484 1484 1486 1487 1488 1490 1492 1493 1495 1496 1497 1498 1499 1499 1500 1501 1501 1502 1503 1503 1503 1504 1505 1505 1506 1507 1508 1509 1510 1511 1513 1515 1516 1518 1520
1487 1486 1485 1484 1484 1483 1483 1483 1485 1486 1487 1489 1490 1491 1493 1494 1495 1496 1497 1498 1499 1499 1500 1500 1501 1501 1501 1502 1502 1503 1503 1503 1504 1505 1505 1506 1507 1508 1510 1512 1514 1516 1518
1489 1488 1487 1486 1486 1485 1485 1485 1486 1487 1489 1490 1491 1493 1494 1495 1496 1497 1498 1498 1499 1499 1499 1500 1500 1500 1500 1501 1501 1501 1501 1501 1502 1503 1504 1504 1504 1505 1507 1510 1512 1514 1516
1490 1489 1488 1488 1487 1487 1487 1487 1488 1489 1490 1492 1493 1494 1495 1496 1497 1498 1499 1499 1499 1499 1499 1499 1499 1499 1500 1500 1500 1500 1500 1501 1502 1502 1503 1503 1503 1504 1506 1508 1511 1513 1515
1492 1491 1490 1490 1490 1489 1489 1489 1490 1491 1492 1493 1494 1495 1496 1497 1498 1498 1499 1499 1499 1499 1499 1498 1498 1499 1499 1499 1500 1500 1500 1501 1502 1502 1503 1503 1503 1504 1506 1508 1510 1512 1514
1493 1493 1492 1491 1491 1491 1491 1491 1492 1493 1494 1495 1496 1496 1497 1498 1498 1499 1499 1499 1499 1499 1499 1498 1498 1499 1499 1499 1499 1500 1501 1501 1502 1502 1503 1503 1504 1504 1506 1507 1509 1511 1512
1495 1494 1493 1493 1492 1493 1493 1493 1494 1495 1495 1496 1497 1497 1498 1499 1499 1499 1499 1499 1499 1499 1499 1499 1499 1499 1499 1500 1500 1501 1501 1501 1502 1502 1503 1504 1504 1505 1506 1507 1508 1510 1511
1496 1495 1495 1494 1494 1494 1494 1495 1495 1496 1497 1497 1498 1498 1499 1499 1499 1500 1500 1500 1500 1500 1500 1499 1499 1499 1500 1500 1501 1501 1501 1501 1502 1503 1503 1504 1504 1505 1506 1507 1508 1509 1510
1497 1497 1496 1496 1495 1495 1496 1496 1497 1498 1498 1499 1499 1500 1500 1500 1500 1500 1500 1500 1500 1500 1500 1500 1500 1499 1500 1500 1501 1501 1501 1502 1502 1503 1503 1504 1504 1504 1505 1506 1507 1507 1508
1499 1498 1498 1497 1497 1497 1498 1498 1499 1499 1499 1500 1500 1501 1501 1501 1501 1501 1501 1501 1501 1500 1500 1500 1500 1500 1500 1500 1501 1501 1502 1502 1502 1503 1503 1503 1503 1504 1504 1505 1505 1505 1506
1500 1500 1499 1499 1499 1499 1499 1500 1500 1501 1501 1501 1501 1502 1502 1502 1502 1502 1502 1501 1501 1501 1501 1501 1500 1500 1500 1500 1501 1501 1502 1502 1502 1502 1502 1502 1503 1503 1503 1503 1503 1503 1503
1500 1500 1500 1500 1500 1500 1501 1501 1501 1502 1502 1502 1503 1503 1503 1503 1503 1502 1502 1502 1502 1501 1501 1501 1501 1500 1500 1500 1501 1501 1502 1502 1502 1502 1501 1502 1502 1502 1502 1502 1502 1502 1502
1500 1501 1501 1501 1501 1502 1502 1502 1502 1503 1503 1503 1503 1503 1503 1503 1503 1503 1503 1503 1502 1502 1501 1501 1501 1500 1500 1501 1501 1501 1501 1501 1501 1501 1501 1501 1501 1501 1501 1501 1501 1501 1501
1500 1500 1501 1501 1501 1502 1503 1503 1504 1504 1504 1504 1504 1504 1504 1504 1504 1503 1503 1502 1502 1502 1501 1501 1501 1501 1501 1501 1501 1501 1501 1502 1501 1501 1501 1500 1500 1500 1500 1501 1501 1501 1500
1500 1500 1501 1501 1502 1502 1503 1504 1504 1504 1504 1504 1504 1504 1504 1504 1503 1503 1503 1503 1502 1502 1501 1501 1501 1501 1501 1501 1501 1502 1501 1501 1501 1501 1500 1500 1500 1500 1500 1500 1500 1500 1499
1499 1500 1501 1502 1502 1503 1503 1503 1504 1504 1504 1504 1504 1504 1504 1504 1503 1503 1503 1502 1502 1502 1501 1501 1501 1501 1500 1500 1500 1501 1501 1501 1501 1500 1500 1500 1499 1499 1499 1499 1499 1499 1498
1498 1500 1501 1501 1502 1502 1503 1503 1504 1504 1504 1504 1504 1504 1504 1503 1503 1503 1502 1502 1502 1501 1501 1501 1501 1500 1500 1500 1500 1500 1500 1500 1500 1500 1499 1499 1499 1498 1498 1498 1498 1498 1498
1497 1499 1500 1500 1501 1502 1502 1503 1503 1503 1504 1504 1504 1504 1503 1503 1503 1502 1502 1502 1501 1501 1500 1500 1500 1499 1499 1499 1499 1499 1498 1498 1498 1498 1498 1497 1497 1498 1498 1498 1497 1497 1497